{"data":{"norad_id":67429,"epoch":"2026-09-19T14:19:29.994816Z","epoch_age_seconds":153382,"freshness":"FRESH","line1":"1 67429U 26005AB  26262.59687494  .00009821  00000+0  36607-3 0  9995","line2":"2 67429  42.9999 222.7550 0001199 259.7864 100.2852 15.27568470 38347","mean_motion":15.2756847,"eccentricity":0.0001199,"inclination_deg":42.9999,"raan_deg":222.755,"arg_perigee_deg":259.7864,"mean_anomaly_deg":100.2852,"bstar":0.00036607,"rev_number":3834,"period_min":94.267460233714,"perigee_km":482.26096087222,"apogee_km":483.90628157719,"semimajor_km":6861.2206212247,"source":"CELESTRAK","updated_at":"2026-09-20T09:00:43.525139Z"}}